Regional Weather Roundup
Issued by NWS

Home | Current Version | Previous Version | Graphics & Text | Print | Product List | Glossary On
Versions: 1 2 3 4 5 6 7 8 9 10 11 12 13 14 15 16 17 18 19 20 21 22 23 24 25 26 27 28 29 30 31 32 33 34 35 36 37 38 39 40 41 42 43 44 45 46 47 48 49 50
000
ASUS43 KLMK 301110
RWRKY
KENTUCKY REGIONAL WEATHER ROUNDUP
NATIONAL WEATHER SERVICE LOUISVILLE KY
700 AM EDT MON MAY 30 2016

NOTE "FAIR" INDICATES FEW OR NO CLOUDS BELOW 12,000 FEET
WITH NO SIGNIFICANT WEATHER AND/OR OBSTRUCTIONS TO VISIBILITY.

KYZ001>023-026-027-061>063-070>075-301200-
WESTERN AND SOUTH CENTRAL KENTUCKY

CITY           SKY/WX    TMP DP  RH WIND       PRES   REMARKS
PADUCAH        CLEAR     62  60  93 CALM      30.05R
HENDERSON      CLEAR     63  57  82 CALM      30.05S
OWENSBORO      CLEAR     65  65 100 NW3       30.06R
HOPKINSVILLE   CLEAR     66  63  89 N1        30.05R
BOWLING GREEN  PTCLDY    65  63  93 CALM      30.05R
GLASGOW        CLEAR     62  62 100 CALM      30.05R FOG
$$

KYZ024-025-028>034-038-045-046-053-301200-
NORTH CENTRAL KENTUCKY

CITY           SKY/WX    TMP DP  RH WIND       PRES   REMARKS
LOUISVILLE/SDF PTCLDY    69  61  75 CALM      30.04R
LOUISVILLE/LOU PTCLDY    66  61  84 CALM      30.05R
FORT KNOX      CLEAR     61  60  95 NW2       30.03S
$$

KYZ035>037-039>044-047>052-055>060-089>105-301200-
NORTHEAST KENTUCKY

CITY           SKY/WX    TMP DP  RH WIND       PRES   REMARKS
LEXINGTON      PTCLDY    65  62  90 CALM      30.05S FOG
COVINGTON      MOCLDY    63  63 100 CALM      30.05R
FRANKFORT      CLEAR     62  59  90 CALM      30.03S FOG
$$

KYZ054-064>069-076>088-106>120-301200-
SOUTHEAST KENTUCKY

CITY           SKY/WX    TMP DP  RH WIND       PRES   REMARKS
JACKSON        MOCLDY    65  62  90 VRB3      30.05R
LONDON         MOCLDY    66  62  87 CALM      30.05F
SOMERSET       PTCLDY    63  63 100 CALM      30.07S FOG
MIDDLESBORO    CLOUDY    61  61 100 CALM      30.08S FOG
MONTICELLO     PTSUNNY   64  64 100 CALM      30.07S FOG
$$





USA.gov is the U.S. government's official web portal to all federal, state and local government web resources and services.